小惑星A/2019 T1

A/2019 T1

English version
Home page
Updated on May 1, 2022

---------------------------------------------------------------------

・ プロフィール

発見日 2019年10月8日
発見光度 20.7等
発見者 Pan-STARRS 2 (Haleakala)

・ 写真集

・ 軌道要素

Epoch 2022 Jan. 21.0 TT = JDT 2459600.5
T 2021 Jan. 14.49092 TT                                 Rudenko
q   4.2819246            (2000.0)            P               Q
z  +0.0260220      Peri.   91.05805     +0.04372712     -0.99363467
 +/-0.0000005      Node     6.94730     -0.81066479     -0.09602254
e   0.8885756      Incl.  120.87314     +0.58387545     -0.05890521
H   13.0
From 236 observations 2017 Sept. 16-2022 Feb. 15, mean residual 0".4.

・ 光度変化

        H = 13.0  G = 0.15

---------------------------------------------------------------------

軌道要素はM.P.E.C. 2022-D36に掲載されたものです。
光度グラフはComet for Windowsで作成したものです。

---------------------------------------------------------------------

Copyright(C) Seiichi Yoshida (comet@aerith.net). All rights reserved.